TimeAST,TemperatureF,Dew PointF,Humidity,Sea Level PressureIn,VisibilityMPH,Wind Direction,Wind SpeedMPH,Gust SpeedMPH,PrecipitationIn,Events,Conditions,WindDirDegrees,DateUTC
12:56 AM,75.0,72.0,90,30.07,10.0,SE,3.5,-,0.00,,Scattered Clouds,130,2014-02-08 04:56:00
1:56 AM,73.9,72.0,93,30.05,10.0,East,5.8,-,0.01,,Scattered Clouds,100,2014-02-08 05:56:00
2:56 AM,73.9,71.1,91,30.04,10.0,ESE,4.6,-,N/A,,Scattered Clouds,110,2014-02-08 06:56:00
3:56 AM,73.9,71.1,91,30.02,10.0,Calm,Calm,-,0.00,,Scattered Clouds,0,2014-02-08 07:56:00
4:56 AM,73.9,72.0,93,30.02,10.0,Calm,Calm,-,N/A,,Scattered Clouds,0,2014-02-08 08:56:00
5:56 AM,73.0,72.0,96,30.03,10.0,Calm,Calm,-,0.01,,Scattered Clouds,0,2014-02-08 09:56:00
6:56 AM,73.9,73.0,97,30.04,10.0,SE,3.5,-,0.01,Rain,Light Rain,130,2014-02-08 10:56:00
7:56 AM,73.9,73.9,100,30.05,10.0,SE,3.5,-,0.08,,Mostly Cloudy,140,2014-02-08 11:56:00
8:56 AM,77.0,75.0,94,30.07,10.0,ESE,5.8,-,N/A,,Scattered Clouds,110,2014-02-08 12:56:00
9:56 AM,79.0,73.9,84,30.09,10.0,East,16.1,-,0.00,Rain,Light Rain,80,2014-02-08 13:56:00
10:56 AM,78.1,73.9,87,30.08,10.0,East,15.0,-,0.02,,Mostly Cloudy,90,2014-02-08 14:56:00
11:56 AM,78.1,75.0,90,30.07,10.0,ESE,9.2,-,0.01,,Mostly Cloudy,110,2014-02-08 15:56:00
12:56 PM,80.1,73.9,81,30.04,10.0,East,16.1,-,0.05,,Mostly Cloudy,80,2014-02-08 16:56:00
1:56 PM,80.1,72.0,76,30.03,10.0,East,18.4,-,N/A,,Scattered Clouds,90,2014-02-08 17:56:00
2:56 PM,79.0,72.0,79,30.00,10.0,East,15.0,-,N/A,,Scattered Clouds,80,2014-02-08 18:56:00
3:56 PM,80.1,70.0,71,30.00,10.0,East,12.7,23.0,N/A,,Scattered Clouds,100,2014-02-08 19:56:00
4:56 PM,78.1,71.1,79,30.00,10.0,East,10.4,-,N/A,,Scattered Clouds,100,2014-02-08 20:56:00
5:56 PM,78.1,71.1,79,30.01,10.0,East,9.2,-,N/A,,Scattered Clouds,100,2014-02-08 21:56:00
6:56 PM,75.9,72.0,87,30.02,10.0,East,4.6,-,N/A,,Scattered Clouds,90,2014-02-08 22:56:00
7:56 PM,75.9,73.0,91,30.03,9.0,East,5.8,-,0.00,Rain,Light Rain,90,2014-02-08 23:56:00
8:56 PM,75.0,73.0,94,30.04,10.0,ESE,4.6,-,0.01,,Partly Cloudy,110,2014-02-09 00:56:00
9:56 PM,73.9,73.0,97,30.04,10.0,East,4.6,-,N/A,,Partly Cloudy,100,2014-02-09 01:56:00
10:56 PM,73.9,72.0,93,30.04,10.0,ESE,3.5,-,N/A,,Partly Cloudy,110,2014-02-09 02:56:00
11:56 PM,73.0,71.1,93,30.03,10.0,ESE,3.5,-,N/A,,Partly Cloudy,120,2014-02-09 03:56:00